{"data":{"norad_id":57045,"epoch":"2026-09-19T19:29:38.642784Z","epoch_age_seconds":81413,"freshness":"FRESH","line1":"1 57045U 23086A   26262.81225281 -.00000239  00000+0  00000+0 0  9990","line2":"2 57045   0.0499 355.0294 0002717 292.9051 149.1996  1.00269928 10702","mean_motion":1.00269928,"eccentricity":0.0002717,"inclination_deg":0.0499,"raan_deg":355.0294,"arg_perigee_deg":292.9051,"mean_anomaly_deg":149.1996,"bstar":0,"rev_number":1070,"period_min":1436.1235005574,"perigee_km":35775.659254617,"apogee_km":35798.571852855,"semimajor_km":42165.252553736,"source":"CELESTRAK","updated_at":"2026-09-20T09:00:35.333484Z"}}